Location: Hackbridge
(51.3833°N, 0.1500°W)
Time: 01:59:10
(UTC+00:00)

STARLINK-78 - Pass Details

Date: 13 October 2019
Orbit: 548 x 551 km, 53.0° (Epoch: 18 November)

Event Time Altitude Azimuth Distance (km) Brightness Sun altitude
Rises 18:32:48 0° 224° (SW) 2,707 7.8 -13.3°
Reaches altitude 10° 18:35:06 10° 217° (SW) 1,817 6.7 -13.7°
Maximum altitude 18:38:59 41° 147° (SSE) 806 4.2 -14.3°
Enters shadow 18:40:47 26° 95° (E) 1,107 4.5 -14.5°
